contact:dominique.lefevre@mio.osupytheas.fr, maurice.libes@osupytheas.fr, didier.mallarino@osupytheas.fr
Project:EMSO http://www.emso-fr.org/EMSO-France
Depth: 2436.0 m
Title:EMSO Ligure Ouest : Data MII capteur MICROCAT
DateTime_Computer,Latitude,Longitude,Temperature,Conductivity,Pressure,DateTime_Instrument
DateTime_Computer,Latitude,Longitude,degC,S m-1,dbar,DateTime_Instrument
2017-11-16T00:02:24Z,42.805,6.029,13.2939,4.59964,2472.002,2017-11-16T02:03:52Z
2017-11-16T00:05:27Z,42.805,6.029,13.2940,4.59963,2472.002,2017-11-16T02:06:54Z
2017-11-16T00:08:30Z,42.805,6.029,13.2940,4.59963,2472.002,2017-11-16T02:09:57Z
2017-11-16T00:11:33Z,42.805,6.029,13.2939,4.59966,2472.002,2017-11-16T02:13:00Z
2017-11-16T00:14:36Z,42.805,6.029,13.2940,4.59966,2472.002,2017-11-16T02:16:03Z
2017-11-16T00:17:39Z,42.805,6.029,13.2943,4.59964,2471.942,2017-11-16T02:19:06Z
2017-11-16T00:20:42Z,42.805,6.029,13.2940,4.59964,2471.979,2017-11-16T02:22:09Z
2017-11-16T00:23:44Z,42.805,6.029,13.2943,4.59963,2471.979,2017-11-16T02:25:12Z
2017-11-16T00:26:47Z,42.805,6.029,13.2942,4.59964,2471.964,2017-11-16T02:28:15Z
2017-11-16T00:29:50Z,42.805,6.029,13.2940,4.59964,2471.964,2017-11-16T02:31:18Z
2017-11-16T00:32:53Z,42.805,6.029,13.2939,4.59964,2471.957,2017-11-16T02:34:20Z
2017-11-16T00:35:56Z,42.805,6.029,13.2939,4.59967,2471.942,2017-11-16T02:37:23Z
2017-11-16T00:38:59Z,42.805,6.029,13.2940,4.59964,2471.957,2017-11-16T02:40:26Z
2017-11-16T00:42:02Z,42.805,6.029,13.2941,4.59962,2471.964,2017-11-16T02:43:29Z
2017-11-16T00:45:05Z,42.805,6.029,13.2939,4.59964,2471.979,2017-11-16T02:46:32Z
2017-11-16T00:48:08Z,42.805,6.029,13.2947,4.59968,2472.002,2017-11-16T02:49:35Z
2017-11-16T00:51:10Z,42.805,6.029,13.2951,4.59981,2471.957,2017-11-16T02:52:38Z
2017-11-16T00:54:13Z,42.805,6.029,13.2967,4.60015,2471.942,2017-11-16T02:55:41Z
2017-11-16T00:57:16Z,42.805,6.029,13.2962,4.60000,2471.957,2017-11-16T02:58:44Z
2017-11-16T01:00:19Z,42.805,6.029,13.2968,4.59972,2471.957,2017-11-16T03:01:46Z
2017-11-16T01:03:22Z,42.805,6.029,13.2958,4.59978,2471.979,2017-11-16T03:04:49Z
2017-11-16T01:06:25Z,42.805,6.029,13.2965,4.59981,2471.994,2017-11-16T03:07:52Z
2017-11-16T01:09:28Z,42.805,6.029,13.2969,4.59973,2471.957,2017-11-16T03:10:55Z
2017-11-16T01:12:31Z,42.805,6.029,13.2959,4.59982,2472.002,2017-11-16T03:13:58Z
2017-11-16T01:15:34Z,42.805,6.029,13.2950,4.59981,2471.957,2017-11-16T03:17:01Z
2017-11-16T01:18:36Z,42.805,6.029,13.2964,4.59998,2472.002,2017-11-16T03:20:04Z
2017-11-16T01:21:39Z,42.805,6.029,13.2961,4.59989,2471.957,2017-11-16T03:23:07Z
2017-11-16T01:24:42Z,42.805,6.029,13.2966,4.59995,2471.979,2017-11-16T03:26:10Z
2017-11-16T01:27:45Z,42.805,6.029,13.2966,4.59995,2471.979,2017-11-16T03:29:13Z
2017-11-16T01:30:48Z,42.805,6.029,13.2977,4.60044,2472.002,2017-11-16T03:32:15Z
2017-11-16T01:33:51Z,42.805,6.029,13.2971,4.60049,2471.979,2017-11-16T03:35:18Z
2017-11-16T01:36:54Z,42.805,6.029,13.2973,4.60044,2472.002,2017-11-16T03:38:21Z
2017-11-16T01:39:57Z,42.805,6.029,13.2970,4.60047,2472.002,2017-11-16T03:41:24Z
2017-11-16T01:43:00Z,42.805,6.029,13.2962,4.60058,2472.01,2017-11-16T03:44:27Z
2017-11-16T01:46:03Z,42.805,6.029,13.2967,4.60081,2472.002,2017-11-16T03:47:30Z
2017-11-16T01:49:05Z,42.805,6.029,13.2957,4.60041,2471.979,2017-11-16T03:50:33Z
2017-11-16T01:52:08Z,42.805,6.029,13.2961,4.60074,2471.979,2017-11-16T03:53:36Z
2017-11-16T01:55:11Z,42.805,6.029,13.2978,4.60008,2472.002,2017-11-16T03:56:39Z
2017-11-16T01:58:14Z,42.805,6.029,13.2966,4.60057,2472.002,2017-11-16T03:59:41Z
2017-11-16T02:01:17Z,42.805,6.029,13.2968,4.60040,2472.024,2017-11-16T04:02:44Z
2017-11-16T02:04:20Z,42.805,6.029,13.2960,4.59988,2472.002,2017-11-16T04:05:47Z
2017-11-16T02:07:23Z,42.805,6.029,13.2953,4.59992,2472.024,2017-11-16T04:08:50Z
2017-11-16T02:10:26Z,42.805,6.029,13.2965,4.60023,2472.002,2017-11-16T04:11:53Z
2017-11-16T02:13:29Z,42.805,6.029,13.2963,4.59998,2472.024,2017-11-16T04:14:56Z
2017-11-16T02:16:31Z,42.805,6.029,13.2949,4.60018,2472.024,2017-11-16T04:17:59Z
2017-11-16T02:19:34Z,42.805,6.029,13.2969,4.60015,2472.01,2017-11-16T04:21:02Z
2017-11-16T02:22:37Z,42.805,6.029,13.2950,4.60023,2472.032,2017-11-16T04:24:05Z
2017-11-16T02:25:40Z,42.805,6.029,13.2963,4.60007,2472.047,2017-11-16T04:27:08Z
2017-11-16T02:28:43Z,42.805,6.029,13.2961,4.60007,2472.002,2017-11-16T04:30:10Z
2017-11-16T02:31:46Z,42.805,6.029,13.2960,4.60044,2472.024,2017-11-16T04:33:13Z
2017-11-16T02:34:49Z,42.805,6.029,13.2957,4.60017,2472.024,2017-11-16T04:36:16Z
2017-11-16T02:37:52Z,42.805,6.029,13.2965,4.60015,2472.01,2017-11-16T04:39:19Z
2017-11-16T02:40:55Z,42.805,6.029,13.2958,4.60058,2472.047,2017-11-16T04:42:22Z
2017-11-16T02:43:57Z,42.805,6.029,13.2957,4.60038,2472.024,2017-11-16T04:45:25Z
2017-11-16T02:47:00Z,42.805,6.029,13.2952,4.60007,2472.024,2017-11-16T04:48:28Z
2017-11-16T02:50:03Z,42.805,6.029,13.2962,4.60065,2472.01,2017-11-16T04:51:31Z
2017-11-16T02:53:06Z,42.805,6.029,13.2957,4.60031,2472.002,2017-11-16T04:54:34Z
2017-11-16T02:56:09Z,42.805,6.029,13.2966,4.60001,2472.069,2017-11-16T04:57:36Z
2017-11-16T02:59:12Z,42.805,6.029,13.2959,4.60027,2472.024,2017-11-16T05:00:39Z
2017-11-16T03:02:15Z,42.805,6.029,13.2958,4.60008,2472.069,2017-11-16T05:03:42Z
2017-11-16T03:05:18Z,42.805,6.029,13.2955,4.60030,2472.069,2017-11-16T05:06:45Z
2017-11-16T03:08:21Z,42.805,6.029,13.2956,4.60052,2472.047,2017-11-16T05:09:48Z
2017-11-16T03:11:23Z,42.805,6.029,13.2966,4.60040,2472.092,2017-11-16T05:12:51Z
2017-11-16T03:14:26Z,42.805,6.029,13.2958,4.60046,2472.069,2017-11-16T05:15:54Z
2017-11-16T03:17:29Z,42.805,6.029,13.2962,4.59993,2472.055,2017-11-16T05:18:57Z
2017-11-16T03:20:32Z,42.805,6.029,13.2955,4.60001,2472.069,2017-11-16T05:22:00Z
2017-11-16T03:23:35Z,42.805,6.029,13.2960,4.60019,2472.032,2017-11-16T05:25:02Z
2017-11-16T03:26:38Z,42.805,6.029,13.2954,4.60021,2472.047,2017-11-16T05:28:05Z
2017-11-16T03:29:41Z,42.805,6.029,13.2957,4.59997,2472.069,2017-11-16T05:31:08Z
2017-11-16T03:32:44Z,42.805,6.029,13.2961,4.60014,2472.092,2017-11-16T05:34:11Z
2017-11-16T03:35:47Z,42.805,6.029,13.2964,4.60034,2472.092,2017-11-16T05:37:14Z
2017-11-16T03:38:49Z,42.805,6.029,13.2972,4.60001,2472.055,2017-11-16T05:40:17Z
2017-11-16T03:41:52Z,42.805,6.029,13.2972,4.60031,2472.092,2017-11-16T05:43:20Z
2017-11-16T03:44:55Z,42.805,6.029,13.2975,4.60037,2472.092,2017-11-16T05:46:23Z
2017-11-16T03:47:58Z,42.805,6.029,13.2967,4.60054,2472.077,2017-11-16T05:49:26Z
2017-11-16T03:51:01Z,42.805,6.029,13.2970,4.60018,2472.077,2017-11-16T05:52:28Z
2017-11-16T03:54:04Z,42.805,6.029,13.2970,4.59999,2472.092,2017-11-16T05:55:31Z
2017-11-16T03:57:07Z,42.805,6.029,13.2966,4.60008,2472.115,2017-11-16T05:58:34Z
2017-11-16T04:00:10Z,42.805,6.029,13.2954,4.60013,2472.092,2017-11-16T06:01:37Z
2017-11-16T04:03:13Z,42.805,6.029,13.2961,4.60019,2472.092,2017-11-16T06:04:40Z
2017-11-16T04:06:16Z,42.805,6.029,13.2961,4.60008,2472.092,2017-11-16T06:07:43Z
2017-11-16T04:09:18Z,42.805,6.029,13.2957,4.60016,2472.115,2017-11-16T06:10:46Z
2017-11-16T04:12:21Z,42.805,6.029,13.2959,4.60001,2472.092,2017-11-16T06:13:49Z
2017-11-16T04:15:24Z,42.805,6.029,13.2957,4.60001,2472.115,2017-11-16T06:16:52Z
2017-11-16T04:18:27Z,42.805,6.029,13.2958,4.59993,2472.137,2017-11-16T06:19:54Z
2017-11-16T04:21:30Z,42.805,6.029,13.2957,4.60004,2472.137,2017-11-16T06:22:57Z
2017-11-16T04:24:33Z,42.805,6.029,13.2961,4.60006,2472.1,2017-11-16T06:26:00Z
2017-11-16T04:27:36Z,42.805,6.029,13.2954,4.59995,2472.115,2017-11-16T06:29:03Z
2017-11-16T04:30:39Z,42.805,6.029,13.2954,4.60013,2472.123,2017-11-16T06:32:06Z
2017-11-16T04:33:42Z,42.805,6.029,13.2957,4.60007,2472.115,2017-11-16T06:35:09Z
2017-11-16T04:36:44Z,42.805,6.029,13.2950,4.60010,2472.115,2017-11-16T06:38:12Z
2017-11-16T04:39:47Z,42.805,6.029,13.2955,4.60038,2472.137,2017-11-16T06:41:15Z
2017-11-16T04:42:50Z,42.805,6.029,13.2961,4.60020,2472.152,2017-11-16T06:44:18Z
2017-11-16T04:45:53Z,42.805,6.029,13.2960,4.60041,2472.137,2017-11-16T06:47:21Z
2017-11-16T04:48:56Z,42.805,6.029,13.2968,4.60024,2472.123,2017-11-16T06:50:23Z
2017-11-16T04:51:59Z,42.805,6.029,13.2974,4.60015,2472.115,2017-11-16T06:53:26Z
2017-11-16T04:55:02Z,42.805,6.029,13.2966,4.60025,2472.137,2017-11-16T06:56:29Z
2017-11-16T04:58:05Z,42.805,6.029,13.2961,4.59997,2472.137,2017-11-16T06:59:32Z
2017-11-16T05:01:08Z,42.805,6.029,13.2961,4.60049,2472.1,2017-11-16T07:02:35Z
2017-11-16T05:04:10Z,42.805,6.029,13.2959,4.60057,2472.137,2017-11-16T07:05:38Z
2017-11-16T05:07:13Z,42.805,6.029,13.2979,4.60051,2472.145,2017-11-16T07:08:41Z
2017-11-16T05:10:16Z,42.805,6.029,13.2960,4.60029,2472.123,2017-11-16T07:11:44Z
2017-11-16T05:13:19Z,42.805,6.029,13.2979,4.60063,2472.16,2017-11-16T07:14:47Z
2017-11-16T05:16:22Z,42.805,6.029,13.2979,4.60018,2472.145,2017-11-16T07:17:49Z
2017-11-16T05:19:25Z,42.805,6.029,13.2987,4.60031,2472.123,2017-11-16T07:20:52Z
2017-11-16T05:22:28Z,42.805,6.029,13.2984,4.60049,2472.115,2017-11-16T07:23:55Z
2017-11-16T05:25:31Z,42.805,6.029,13.2988,4.60031,2472.137,2017-11-16T07:26:58Z
2017-11-16T05:28:34Z,42.805,6.029,13.2994,4.60031,2472.16,2017-11-16T07:30:01Z
2017-11-16T05:31:36Z,42.805,6.029,13.3000,4.60052,2472.137,2017-11-16T07:33:04Z
2017-11-16T05:34:39Z,42.805,6.029,13.2985,4.60068,2472.123,2017-11-16T07:36:07Z
2017-11-16T05:37:42Z,42.805,6.029,13.2991,4.60041,2472.16,2017-11-16T07:39:10Z
2017-11-16T05:40:45Z,42.805,6.029,13.2999,4.60049,2472.137,2017-11-16T07:42:13Z
2017-11-16T05:43:48Z,42.805,6.029,13.2986,4.60059,2472.182,2017-11-16T07:45:15Z
2017-11-16T05:46:51Z,42.805,6.029,13.3005,4.60078,2472.137,2017-11-16T07:48:18Z
2017-11-16T05:49:54Z,42.805,6.029,13.3008,4.60104,2472.145,2017-11-16T07:51:21Z
2017-11-16T05:52:57Z,42.805,6.029,13.2986,4.60042,2472.16,2017-11-16T07:54:24Z
2017-11-16T05:56:00Z,42.805,6.029,13.3018,4.60091,2472.182,2017-11-16T07:57:27Z
2017-11-16T05:59:03Z,42.805,6.029,13.3019,4.60024,2472.182,2017-11-16T08:00:30Z
2017-11-16T06:02:05Z,42.805,6.029,13.3019,4.60039,2472.182,2017-11-16T08:03:33Z
2017-11-16T06:05:08Z,42.805,6.029,13.3003,4.60005,2472.16,2017-11-16T08:06:36Z
2017-11-16T06:08:11Z,42.805,6.029,13.3003,4.59992,2472.123,2017-11-16T08:09:39Z
2017-11-16T06:11:14Z,42.805,6.029,13.3026,4.60003,2472.123,2017-11-16T08:12:41Z
2017-11-16T06:14:17Z,42.805,6.029,13.2958,4.60013,2472.137,2017-11-16T08:15:44Z
2017-11-16T06:17:20Z,42.805,6.029,13.2983,4.59989,2472.175,2017-11-16T08:18:47Z
2017-11-16T06:20:23Z,42.805,6.029,13.2970,4.59990,2472.137,2017-11-16T08:21:50Z
2017-11-16T06:23:26Z,42.805,6.029,13.2965,4.59997,2472.145,2017-11-16T08:24:53Z
2017-11-16T06:26:29Z,42.805,6.029,13.3029,4.59981,2472.145,2017-11-16T08:27:56Z
2017-11-16T06:29:31Z,42.805,6.029,13.2996,4.59984,2472.175,2017-11-16T08:30:59Z
2017-11-16T06:32:34Z,42.805,6.029,13.2986,4.60015,2472.16,2017-11-16T08:34:02Z
2017-11-16T06:35:37Z,42.805,6.029,13.2973,4.60020,2472.145,2017-11-16T08:37:05Z
2017-11-16T06:38:40Z,42.805,6.029,13.2960,4.59990,2472.1,2017-11-16T08:40:08Z
2017-11-16T06:41:43Z,42.805,6.029,13.2978,4.59987,2472.123,2017-11-16T08:43:10Z
2017-11-16T06:44:46Z,42.805,6.029,13.2968,4.59986,2472.145,2017-11-16T08:46:13Z
2017-11-16T06:47:49Z,42.805,6.029,13.2961,4.60001,2472.123,2017-11-16T08:49:16Z
2017-11-16T06:50:52Z,42.805,6.029,13.2967,4.59989,2472.123,2017-11-16T08:52:19Z
2017-11-16T06:53:55Z,42.805,6.029,13.2968,4.59998,2472.16,2017-11-16T08:55:22Z
2017-11-16T06:56:57Z,42.805,6.029,13.2985,4.59989,2472.16,2017-11-16T08:58:25Z
2017-11-16T07:00:00Z,42.805,6.029,13.2973,4.59987,2472.182,2017-11-16T09:01:28Z
2017-11-16T07:03:03Z,42.805,6.029,13.2969,4.59998,2472.16,2017-11-16T09:04:31Z
2017-11-16T07:06:06Z,42.805,6.029,13.2968,4.59988,2472.115,2017-11-16T09:07:34Z
2017-11-16T07:09:09Z,42.805,6.029,13.2965,4.59980,2472.137,2017-11-16T09:10:36Z
2017-11-16T07:12:12Z,42.805,6.029,13.2962,4.59984,2472.1,2017-11-16T09:13:39Z
2017-11-16T07:15:15Z,42.805,6.029,13.2967,4.59995,2472.123,2017-11-16T09:16:42Z
2017-11-16T07:18:18Z,42.805,6.029,13.2962,4.59984,2472.1,2017-11-16T09:19:45Z
2017-11-16T07:21:21Z,42.805,6.029,13.2994,4.59991,2472.115,2017-11-16T09:22:48Z
2017-11-16T07:24:24Z,42.805,6.029,13.2968,4.59977,2472.129,2017-11-16T09:25:51Z
2017-11-16T07:27:26Z,42.805,6.029,13.2974,4.59990,2472.137,2017-11-16T09:28:54Z
2017-11-16T07:30:29Z,42.805,6.029,13.2973,4.59985,2472.1,2017-11-16T09:31:57Z
2017-11-16T07:33:32Z,42.805,6.029,13.2983,4.59987,2472.115,2017-11-16T09:35:00Z
2017-11-16T07:36:35Z,42.805,6.029,13.2975,4.59989,2472.115,2017-11-16T09:38:02Z
2017-11-16T07:39:38Z,42.805,6.029,13.2985,4.59989,2472.123,2017-11-16T09:41:05Z
2017-11-16T07:42:41Z,42.805,6.029,13.2981,4.59984,2472.137,2017-11-16T09:44:08Z
2017-11-16T07:45:44Z,42.805,6.029,13.2968,4.59998,2472.1,2017-11-16T09:47:11Z
2017-11-16T07:48:47Z,42.805,6.029,13.2993,4.59987,2472.115,2017-11-16T09:50:14Z
2017-11-16T07:51:50Z,42.805,6.029,13.2990,4.59982,2472.129,2017-11-16T09:53:17Z
2017-11-16T07:54:52Z,42.805,6.029,13.2970,4.59986,2472.115,2017-11-16T09:56:20Z
2017-11-16T07:57:55Z,42.805,6.029,13.2972,4.59988,2472.137,2017-11-16T09:59:23Z
2017-11-16T08:00:58Z,42.805,6.029,13.2958,4.59983,2472.1,2017-11-16T10:02:26Z
2017-11-16T08:04:01Z,42.805,6.029,13.2961,4.59992,2472.115,2017-11-16T10:05:29Z
2017-11-16T08:07:04Z,42.805,6.029,13.2989,4.60000,2472.137,2017-11-16T10:08:31Z
2017-11-16T08:10:07Z,42.805,6.029,13.2957,4.60015,2472.077,2017-11-16T10:11:34Z
2017-11-16T08:13:10Z,42.805,6.029,13.2975,4.60002,2472.115,2017-11-16T10:14:37Z
2017-11-16T08:16:13Z,42.805,6.029,13.3007,4.59994,2472.092,2017-11-16T10:17:40Z
2017-11-16T08:19:16Z,42.805,6.029,13.2966,4.59988,2472.115,2017-11-16T10:20:43Z
2017-11-16T08:22:19Z,42.805,6.029,13.2983,4.59988,2472.077,2017-11-16T10:23:46Z
2017-11-16T08:25:21Z,42.805,6.029,13.2966,4.59990,2472.115,2017-11-16T10:26:49Z
2017-11-16T08:28:24Z,42.805,6.029,13.2968,4.59989,2472.1,2017-11-16T10:29:52Z
2017-11-16T08:31:27Z,42.805,6.029,13.2968,4.59989,2472.115,2017-11-16T10:32:55Z
2017-11-16T08:34:30Z,42.805,6.029,13.2966,4.59983,2472.092,2017-11-16T10:35:57Z
2017-11-16T08:37:33Z,42.805,6.029,13.2971,4.59997,2472.077,2017-11-16T10:39:00Z
2017-11-16T08:40:36Z,42.805,6.029,13.2972,4.59987,2472.077,2017-11-16T10:42:03Z
2017-11-16T08:43:39Z,42.805,6.029,13.2971,4.59986,2472.077,2017-11-16T10:45:06Z
2017-11-16T08:46:42Z,42.805,6.029,13.2968,4.59994,2472.077,2017-11-16T10:48:09Z
2017-11-16T08:49:45Z,42.805,6.029,13.2973,4.59993,2472.069,2017-11-16T10:51:12Z
2017-11-16T08:52:47Z,42.805,6.029,13.2992,4.59994,2472.092,2017-11-16T10:54:15Z
2017-11-16T08:55:50Z,42.805,6.029,13.2996,4.59989,2472.092,2017-11-16T10:57:18Z
2017-11-16T08:58:53Z,42.805,6.029,13.2973,4.59991,2472.092,2017-11-16T11:00:21Z
2017-11-16T09:01:56Z,42.805,6.029,13.2971,4.59994,2472.077,2017-11-16T11:03:24Z
2017-11-16T09:04:59Z,42.805,6.029,13.2989,4.59989,2472.077,2017-11-16T11:06:26Z
2017-11-16T09:08:02Z,42.805,6.029,13.2964,4.59994,2472.092,2017-11-16T11:09:29Z
2017-11-16T09:11:05Z,42.805,6.029,13.2980,4.59990,2472.092,2017-11-16T11:12:32Z
2017-11-16T09:14:08Z,42.805,6.029,13.3000,4.59989,2472.092,2017-11-16T11:15:35Z
2017-11-16T09:17:11Z,42.805,6.029,13.2973,4.59987,2472.069,2017-11-16T11:18:38Z
2017-11-16T09:20:14Z,42.805,6.029,13.2967,4.59993,2472.069,2017-11-16T11:21:41Z
2017-11-16T09:23:16Z,42.805,6.029,13.2975,4.59991,2472.077,2017-11-16T11:24:44Z
2017-11-16T09:26:19Z,42.805,6.029,13.2977,4.59986,2472.069,2017-11-16T11:27:47Z
2017-11-16T09:29:22Z,42.805,6.029,13.2969,4.59997,2472.115,2017-11-16T11:30:50Z
2017-11-16T09:32:25Z,42.805,6.029,13.2972,4.59992,2472.092,2017-11-16T11:33:53Z
2017-11-16T09:35:28Z,42.805,6.029,13.2987,4.59992,2472.069,2017-11-16T11:36:55Z
2017-11-16T09:38:31Z,42.805,6.029,13.2988,4.59989,2472.092,2017-11-16T11:39:58Z
2017-11-16T09:41:34Z,42.805,6.029,13.2978,4.60002,2472.092,2017-11-16T11:43:01Z
2017-11-16T09:44:37Z,42.805,6.029,13.3001,4.59990,2472.069,2017-11-16T11:46:04Z
2017-11-16T09:47:40Z,42.805,6.029,13.2984,4.59990,2472.055,2017-11-16T11:49:07Z
2017-11-16T09:50:42Z,42.805,6.029,13.2979,4.59999,2472.032,2017-11-16T11:52:10Z
2017-11-16T09:53:45Z,42.805,6.029,13.2991,4.60018,2472.047,2017-11-16T11:55:13Z
2017-11-16T09:56:48Z,42.805,6.029,13.2988,4.59990,2472.047,2017-11-16T11:58:16Z
2017-11-16T09:59:51Z,42.805,6.029,13.3003,4.60003,2472.055,2017-11-16T12:01:19Z
2017-11-16T10:02:54Z,42.805,6.029,13.3026,4.60026,2472.069,2017-11-16T12:04:22Z
2017-11-16T10:05:57Z,42.805,6.029,13.3002,4.60010,2472.032,2017-11-16T12:07:24Z
2017-11-16T10:09:00Z,42.805,6.029,13.3000,4.60001,2472.047,2017-11-16T12:10:27Z
2017-11-16T10:12:03Z,42.805,6.029,13.2996,4.59989,2472.047,2017-11-16T12:13:30Z
2017-11-16T10:15:06Z,42.805,6.029,13.2988,4.59994,2472.069,2017-11-16T12:16:33Z
2017-11-16T10:18:09Z,42.805,6.029,13.3004,4.59999,2472.077,2017-11-16T12:19:36Z
2017-11-16T10:21:11Z,42.805,6.029,13.2970,4.59995,2472.047,2017-11-16T12:22:39Z
2017-11-16T10:24:14Z,42.805,6.029,13.2983,4.60004,2472.032,2017-11-16T12:25:42Z
2017-11-16T10:27:17Z,42.805,6.029,13.3001,4.60005,2472.047,2017-11-16T12:28:45Z
2017-11-16T10:30:20Z,42.805,6.029,13.3031,4.59998,2472.032,2017-11-16T12:31:48Z
2017-11-16T10:33:23Z,42.805,6.029,13.2992,4.60013,2472.024,2017-11-16T12:34:50Z
2017-11-16T10:36:26Z,42.805,6.029,13.2986,4.60003,2472.047,2017-11-16T12:37:53Z
2017-11-16T10:39:29Z,42.805,6.029,13.2975,4.60021,2472.039,2017-11-16T12:40:56Z
2017-11-16T10:42:32Z,42.805,6.029,13.2996,4.60010,2472.062,2017-11-16T12:43:59Z
2017-11-16T10:45:35Z,42.805,6.029,13.2990,4.60003,2472.024,2017-11-16T12:47:02Z
2017-11-16T10:48:38Z,42.805,6.029,13.2996,4.60005,2472.002,2017-11-16T12:50:05Z
2017-11-16T10:51:40Z,42.805,6.029,13.2993,4.60006,2472.039,2017-11-16T12:53:08Z
2017-11-16T10:54:43Z,42.805,6.029,13.3010,4.60007,2472.047,2017-11-16T12:56:11Z
2017-11-16T10:57:46Z,42.805,6.029,13.2976,4.59998,2471.979,2017-11-16T12:59:14Z
2017-11-16T11:00:49Z,42.805,6.029,13.2986,4.60015,2472.047,2017-11-16T13:02:17Z
2017-11-16T11:03:52Z,42.805,6.029,13.2952,4.60005,2472.047,2017-11-16T13:05:19Z
2017-11-16T11:06:55Z,42.805,6.029,13.3001,4.60021,2472.002,2017-11-16T13:08:22Z
2017-11-16T11:09:58Z,42.805,6.029,13.2988,4.60003,2472.062,2017-11-16T13:11:25Z
2017-11-16T11:13:01Z,42.805,6.029,13.2988,4.60004,2472.01,2017-11-16T13:14:28Z
2017-11-16T11:16:04Z,42.805,6.029,13.2975,4.60026,2472.002,2017-11-16T13:17:31Z
2017-11-16T11:19:06Z,42.805,6.029,13.2953,4.60022,2472.032,2017-11-16T13:20:34Z
2017-11-16T11:22:09Z,42.805,6.029,13.3000,4.60018,2472.002,2017-11-16T13:23:37Z
2017-11-16T11:25:12Z,42.805,6.029,13.2975,4.59997,2472.047,2017-11-16T13:26:40Z
2017-11-16T11:28:15Z,42.805,6.029,13.2953,4.59995,2472.024,2017-11-16T13:29:43Z
2017-11-16T11:31:18Z,42.805,6.029,13.2975,4.60014,2472.047,2017-11-16T13:32:45Z
2017-11-16T11:34:21Z,42.805,6.029,13.2954,4.60009,2472.047,2017-11-16T13:35:48Z
2017-11-16T11:37:24Z,42.805,6.029,13.2963,4.60024,2472.024,2017-11-16T13:38:51Z
2017-11-16T11:40:27Z,42.805,6.029,13.2985,4.59992,2472.002,2017-11-16T13:41:54Z
2017-11-16T11:43:30Z,42.805,6.029,13.2986,4.60005,2472.002,2017-11-16T13:44:57Z
2017-11-16T11:46:33Z,42.805,6.029,13.2957,4.59994,2472.024,2017-11-16T13:48:00Z
2017-11-16T11:49:35Z,42.805,6.029,13.3016,4.60006,2472.002,2017-11-16T13:51:03Z
2017-11-16T11:52:38Z,42.805,6.029,13.2998,4.60023,2472.002,2017-11-16T13:54:06Z
2017-11-16T11:55:41Z,42.805,6.029,13.2996,4.60020,2472.024,2017-11-16T13:57:09Z
2017-11-16T11:58:44Z,42.805,6.029,13.3000,4.60009,2472.002,2017-11-16T14:00:12Z
2017-11-16T12:01:47Z,42.805,6.029,13.2950,4.60008,2471.987,2017-11-16T14:03:14Z
2017-11-16T12:04:50Z,42.805,6.029,13.3001,4.60013,2471.987,2017-11-16T14:06:17Z
2017-11-16T12:07:53Z,42.805,6.029,13.2964,4.60046,2472.002,2017-11-16T14:09:20Z
2017-11-16T12:10:56Z,42.805,6.029,13.2935,4.59989,2472.024,2017-11-16T14:12:23Z
2017-11-16T12:13:59Z,42.805,6.029,13.2943,4.59978,2471.987,2017-11-16T14:15:26Z
2017-11-16T12:17:02Z,42.805,6.029,13.2945,4.59990,2471.979,2017-11-16T14:18:29Z
2017-11-16T12:20:04Z,42.805,6.029,13.2941,4.59972,2471.964,2017-11-16T14:21:32Z
2017-11-16T12:23:07Z,42.805,6.029,13.2943,4.59981,2471.987,2017-11-16T14:24:35Z
2017-11-16T12:26:10Z,42.805,6.029,13.2978,4.59982,2471.979,2017-11-16T14:27:38Z
2017-11-16T12:29:13Z,42.805,6.029,13.2939,4.60006,2471.964,2017-11-16T14:30:41Z
2017-11-16T12:32:16Z,42.805,6.029,13.2955,4.59999,2472.024,2017-11-16T14:33:43Z
2017-11-16T12:35:19Z,42.805,6.029,13.2950,4.60009,2471.979,2017-11-16T14:36:46Z
2017-11-16T12:38:22Z,42.805,6.029,13.2960,4.60008,2472.024,2017-11-16T14:39:49Z
2017-11-16T12:41:25Z,42.805,6.029,13.2950,4.60025,2472.002,2017-11-16T14:42:52Z
2017-11-16T12:44:28Z,42.805,6.029,13.2939,4.60010,2471.979,2017-11-16T14:45:55Z
2017-11-16T12:47:31Z,42.805,6.029,13.2939,4.59991,2471.987,2017-11-16T14:48:58Z
2017-11-16T12:50:33Z,42.805,6.029,13.2941,4.59975,2471.979,2017-11-16T14:52:01Z
2017-11-16T12:53:36Z,42.805,6.029,13.2939,4.60001,2471.979,2017-11-16T14:55:04Z
2017-11-16T12:56:39Z,42.805,6.029,13.2935,4.59980,2472.002,2017-11-16T14:58:07Z
2017-11-16T12:59:42Z,42.805,6.029,13.2939,4.59984,2472.002,2017-11-16T15:01:10Z
2017-11-16T13:02:45Z,42.805,6.029,13.2939,4.59964,2472.002,2017-11-16T15:04:12Z
2017-11-16T13:05:48Z,42.805,6.029,13.2941,4.59961,2472.002,2017-11-16T15:07:15Z
2017-11-16T13:08:51Z,42.805,6.029,13.2937,4.59963,2471.987,2017-11-16T15:10:18Z
2017-11-16T13:11:54Z,42.805,6.029,13.2939,4.59963,2471.964,2017-11-16T15:13:21Z
2017-11-16T13:14:57Z,42.805,6.029,13.2939,4.59966,2471.987,2017-11-16T15:16:24Z
2017-11-16T13:17:59Z,42.805,6.029,13.2939,4.59965,2471.979,2017-11-16T15:19:27Z
2017-11-16T13:21:02Z,42.805,6.029,13.2938,4.59969,2472.002,2017-11-16T15:22:30Z
2017-11-16T13:24:05Z,42.805,6.029,13.2935,4.59967,2472.024,2017-11-16T15:25:33Z
2017-11-16T13:27:08Z,42.805,6.029,13.2939,4.59965,2472.002,2017-11-16T15:28:36Z
2017-11-16T13:30:11Z,42.805,6.029,13.2940,4.59967,2472.002,2017-11-16T15:31:38Z
2017-11-16T13:33:14Z,42.805,6.029,13.2938,4.59969,2472.024,2017-11-16T15:34:41Z
2017-11-16T13:36:17Z,42.805,6.029,13.2940,4.59964,2472.01,2017-11-16T15:37:44Z
2017-11-16T13:39:20Z,42.805,6.029,13.2943,4.59967,2472.024,2017-11-16T15:40:47Z
2017-11-16T13:42:23Z,42.805,6.029,13.2938,4.59963,2472.024,2017-11-16T15:43:50Z
2017-11-16T13:45:26Z,42.805,6.029,13.2937,4.59962,2472.002,2017-11-16T15:46:53Z
2017-11-16T13:48:28Z,42.805,6.029,13.2937,4.59961,2472.024,2017-11-16T15:49:56Z
2017-11-16T13:51:31Z,42.805,6.029,13.2941,4.59961,2472.047,2017-11-16T15:52:59Z
2017-11-16T13:54:34Z,42.805,6.029,13.2937,4.59964,2472.01,2017-11-16T15:56:02Z
2017-11-16T13:57:37Z,42.805,6.029,13.2943,4.59965,2472.024,2017-11-16T15:59:05Z
2017-11-16T14:00:40Z,42.805,6.029,13.2940,4.59961,2472.024,2017-11-16T16:02:07Z
2017-11-16T14:03:43Z,42.805,6.029,13.2940,4.59964,2472.024,2017-11-16T16:05:10Z
2017-11-16T14:06:46Z,42.805,6.029,13.2933,4.59965,2472.024,2017-11-16T16:08:13Z
2017-11-16T14:09:49Z,42.805,6.029,13.2939,4.59967,2472.024,2017-11-16T16:11:16Z
2017-11-16T14:12:52Z,42.805,6.029,13.2940,4.59971,2472.024,2017-11-16T16:14:19Z
2017-11-16T14:15:55Z,42.805,6.029,13.2933,4.59963,2472.047,2017-11-16T16:17:22Z
2017-11-16T14:18:57Z,42.805,6.029,13.2934,4.59970,2472.01,2017-11-16T16:20:25Z
2017-11-16T14:22:00Z,42.805,6.029,13.2940,4.59961,2472.047,2017-11-16T16:23:28Z
2017-11-16T14:25:03Z,42.805,6.029,13.2937,4.59959,2472.032,2017-11-16T16:26:31Z
2017-11-16T14:28:06Z,42.805,6.029,13.2939,4.59964,2472.024,2017-11-16T16:29:34Z
2017-11-16T14:31:09Z,42.805,6.029,13.2940,4.59966,2472.032,2017-11-16T16:32:36Z
2017-11-16T14:34:12Z,42.805,6.029,13.2933,4.59961,2472.032,2017-11-16T16:35:39Z
2017-11-16T14:37:15Z,42.805,6.029,13.2936,4.59964,2472.069,2017-11-16T16:38:42Z
2017-11-16T14:40:18Z,42.805,6.029,13.2935,4.59962,2472.055,2017-11-16T16:41:45Z
2017-11-16T14:43:21Z,42.805,6.029,13.2939,4.59961,2472.024,2017-11-16T16:44:48Z
2017-11-16T14:46:23Z,42.805,6.029,13.2935,4.59962,2472.047,2017-11-16T16:47:51Z
2017-11-16T14:49:26Z,42.805,6.029,13.2939,4.59967,2472.032,2017-11-16T16:50:54Z
2017-11-16T14:52:29Z,42.805,6.029,13.2933,4.59959,2472.01,2017-11-16T16:53:57Z
2017-11-16T14:55:32Z,42.805,6.029,13.2941,4.59965,2472.077,2017-11-16T16:57:00Z
2017-11-16T14:58:35Z,42.805,6.029,13.2940,4.59961,2472.069,2017-11-16T17:00:03Z